This demonstration page uses our WeatherBlox Daily Observations layout. Learn more.

Left ArrowRight Arrow

44.8408, -93.29828

Hourly Observations for April 22, 2019

Temp ( °F °C ) Dew Point ( °F °C ) Humidity (%) Winds ( mph kmh ) Pressure ( in mb ) Visibility ( mi km ) Precip ( " mm )
12:53 am 00:53 Mostly Cloudy 49 9.4 40 4.4 71 71 NE 13 20 29.91 1013 10 16 0.00 0.00
1:53 am 01:53 Cloudy 49 9.4 40 4.4 71 71 NNE 13 20 29.92 1013 10 16 0.00 0.00
2:53 am 02:53 Cloudy 48 8.9 40 4.4 74 74 NNE 14 22 29.92 1013 10 16 0.00 0.00
3:53 am 03:53 Cloudy 46 7.8 41 5 83 83 NNE 14 22 29.93 1013 10 16 0.00 0.03
4:53 am 04:53 Cloudy 46 7.8 41 5 83 83 NNE 13 20 29.92 1013 10 16 0.00 0.00
5:53 am 05:53 Cloudy 46 7.8 41 5 83 83 NNE 12 19 29.92 1013 10 16 0.00 0.00
6:29 am 06:29 Cloudy with Nearby Thunderstorms 47 8.3 42 5.6 83 83 W 8 13 30.03 1017 10 16 0.00 0.03
6:42 am 06:42 Cloudy with Thunderstorms 46 7.8 42 5.6 86 86 N 23 37 29.94 1014 5 8 0.03 0.76
6:45 am 06:45 Cloudy with Strong Thunderstorms 46 7.8 42 5.6 86 86 N 22 35 29.93 1013 4 6 0.04 1.02
6:53 am 06:53 Cloudy with Thunderstorms 45 7.2 42 5.6 90 90 NNE 21 33 29.88 1012 4 6 0.07 1.78
7:02 am 07:02 Cloudy with Nearby Thunderstorms 45 7.2 43 6.1 93 93 NE 17 28 29.93 1014 8 13 0.02 0.51
7:09 am 07:09 Cloudy with Light Rain 45 7.2 43 6.1 93 93 NE 14 22 29.93 1014 10 16 0.02 0.51
7:31 am 07:31 Cloudy 46 7.8 43 6.1 89 89 Calm 29.99 1016 10 16 0.03 0.76
7:48 am 07:48 Cloudy with Nearby Thunderstorms 46 8 43 6 87 87 N 9 15 29.97 1015 10 16 0.03 0.76
7:53 am 07:53 Cloudy with Nearby Thunderstorms 46 7.8 43 6.1 89 89 NE 13 20 29.95 1014 10 16 0.03 0.76
7:59 am 07:59 Cloudy with Nearby Thunderstorms 46 7.8 43 6.1 89 89 NNE 13 20 29.96 1014 10 16 0.00 0.03
8:06 am 08:06 Cloudy with Light Rain 46 7.8 43 6.1 89 89 NNE 10 17 29.97 1015 7 11 0.00 0.03
8:32 am 08:32 Cloudy with Light Rain 46 7.8 43 6.1 89 89 NE 14 22 29.95 1014 7 11 0.07 1.78
8:40 am 08:40 Cloudy with Nearby Thunderstorms 46 7.8 43 6.1 89 89 NE 14 22 29.94 1014 10 16 0.07 1.78
8:53 am 08:53 Cloudy 46 7.8 43 6.1 89 89 NE 13 20 29.93 1014 10 16 0.07 1.78
8:57 am 08:57 Cloudy with Nearby Thunderstorms 46 7.8 43 6.1 89 89 NE 16 26 29.94 1014 10 16 0.00 0.00
9:14 am 09:14 Cloudy with Nearby Thunderstorms 47 8.3 43 6.1 86 86 ENE 12 19 29.96 1014 10 16 0.00 0.00
9:24 am 09:24 Cloudy 47 8.3 43 6.1 86 86 NNE 8 13 29.98 1015 10 16 0.00 0.00
9:31 am 09:31 Cloudy with Nearby Thunderstorms 47 8.3 43 6.1 86 86 N 12 19 29.96 1014 7 11 0.00 0.03
9:44 am 09:44 Cloudy with Nearby Thunderstorms 47 8.3 43 6.1 86 86 NE 8 13 29.97 1015 8 13 0.06 1.52
9:53 am 09:53 Cloudy with Nearby Thunderstorms 46 7.8 43 6.1 89 89 NE 8 13 29.94 1014 8 13 0.06 1.52
10:04 am 10:04 Cloudy with Light Rain 46 7.8 43 6.1 89 89 NNE 14 22 29.96 1014 8 13 0.02 0.51
10:11 am 10:11 Cloudy with Light Rain 46 7.8 43 6.1 89 89 NNE 12 19 29.97 1015 9 14 0.03 0.76
10:13 am 10:13 Cloudy with Light Rain 47 8.3 43 6.1 86 86 N 10 17 29.98 1015 10 16 0.03 0.76
10:23 am 10:23 Cloudy 46 7.8 43 6.1 89 89 NW 3 6 30.02 1017 10 16 0.03 0.76
10:53 am 10:53 Cloudy 47 8.3 43 6.1 86 86 NNE 16 26 29.98 1015 8 13 0.03 0.76
11:53 am 11:53 Cloudy 46 7.8 43 6.1 89 89 NNE 22 35 29.93 1014 10 16 0.01 0.25
12:02 pm 12:02 Cloudy with Light Rain 46 7.8 43 6.1 89 89 NNE 17 28 29.94 1014 10 16 0.00 0.03
12:14 pm 12:14 Cloudy with Light Rain 46 7.8 43 6.1 89 89 NNE 16 26 29.96 1014 10 16 0.00 0.03
12:53 pm 12:53 Cloudy 47 8.3 43 6.1 86 86 NE 16 26 29.98 1015 10 16 0.00 0.03
1:53 pm 13:53 Cloudy 47 8.3 42 5.6 83 83 NNE 12 19 30.01 1016 10 16 0.00 0.00
2:53 pm 14:53 Cloudy with Light Rain 46 7.8 42 5.6 86 86 NE 16 26 30.02 1017 10 16 0.00 0.03
3:53 pm 15:53 Cloudy with Light Rain 45 7.2 42 5.6 90 90 NNE 12 19 30.02 1017 6 10 0.03 0.76
4:07 pm 16:07 Cloudy with Light Rain 45 7.2 42 5.6 90 90 NNE 15 24 30.02 1017 8 13 0.00 0.03
4:36 pm 16:36 Cloudy with Light Rain 45 7.2 42 5.6 90 90 NNE 15 24 30.03 1017 5 8 0.02 0.51
4:53 pm 16:53 Cloudy with Light Rain 46 7.8 42 5.6 86 86 NNE 15 24 30.03 1017 5 8 0.04 1.02
5:05 pm 17:05 Cloudy with Light Rain 45 7.2 42 5.6 90 90 NNE 15 24 30.03 1017 5 8 0.00 0.03
5:53 pm 17:53 Cloudy with Drizzle 46 7.8 42 5.6 86 86 NNE 18 30 30.03 1017 10 16 0.01 0.25
6:53 pm 18:53 Cloudy 46 7.8 42 5.6 86 86 NNE 17 28 30.04 1017 10 16 0.00 0.03
7:38 pm 19:38 Cloudy 45 7.2 41 5 86 86 N 16 26 30.06 1018 10 16 0.00 0.00
7:53 pm 19:53 Cloudy 45 7.2 41 5 86 86 N 15 24 30.06 1018 10 16 0.00 0.00
8:53 pm 20:53 Cloudy 45 7.2 40 4.4 83 83 N 16 26 30.08 1019 10 16 0.00 0.00
9:25 pm 21:25 Cloudy 45 7.2 40 4.4 83 83 N 16 26 30.10 1019 10 16 0.00 0.00
9:53 pm 21:53 Cloudy 44 6.7 40 4.4 85 85 N 13 20 30.10 1019 10 16 0.00 0.00
9:59 pm 21:59 Cloudy 44 6.7 40 4.4 85 85 N 16 26 30.10 1019 10 16 0.00 0.00
10:21 pm 22:21 Cloudy 44 6.7 39 3.9 83 83 NNE 16 26 30.11 1020 10 16 0.00 0.00
10:53 pm 22:53 Mostly Cloudy 43 6.1 39 3.9 86 86 NNE 12 19 30.11 1020 10 16 0.00 0.00
11:53 pm 23:53 Mostly Cloudy 43 6.1 37 2.8 80 80 N 9 15 30.11 1020 10 16 0.00 0.00

Powered by AerisWeather